QPF
0.00 0.00 0.00 0.00 0.00 0.00 0.00 0.00 0.00 0.00 0.00 0.00 0.00 0.00 0.00 0.00 0.00 0.00 0.00 0.00 0.00 0.00 0.00 0.00 0.00 0.00 0.00 0.00 0.00 0.00 0.00 0.00 0.00 0.00 0.00 0.00 0.00 0.00 0.00 0.00 0.00 0.00 0.01 0.02
0.00 0.00 0.00 0.00 0.00 0.00 0.00 0.00 0.00 0.00 0.00 0.00 0.00 0.00 0.00 0.00 0.00 0.00 0.00 0.00 0.00 0.00 0.00 0.00 0.00 0.00 0.00 0.00 0.00 0.00 0.00 0.00 0.00 0.00 0.00 0.00 0.00 0.00 0.00 0.00 0.00 0.00 0.00 0.00
0.00 0.00 0.00 0.00 0.00 0.00 0.00 0.00 0.00 0.00 0.00 0.00 0.00 0.00 0.00 0.00 0.00 0.00 0.00 0.00 0.00 0.00 0.00 0.00 0.00 0.00 0.00 0.00 0.00 0.00 0.00 0.00 0.00 0.00 0.00 0.00 0.00 0.00 0.00 0.00 0.01 0.00 0.00 0.00
0.00 0.00 0.00 0.00 0.00 0.00 0.00 0.00 0.00 0.00 0.00 0.00 0.00 0.00 0.00 0.00 0.03 0.01 0.00 0.00 0.00 0.00 0.00 0.00 0.00 0.00 0.00 0.00 0.00 0.00 0.00 0.00 0.00 0.00 0.00 0.00 0.00 0.00 0.00 0.00 0.00 0.00 0.00 0.00
0.00 0.00 0.00 0.00 0.00 0.00 0.00 0.00 0.00 0.00 0.00 0.00 0.00 0.00 0.00 0.00 0.00 0.00 0.00 0.00 0.00 0.00 0.00 0.00 0.00 0.00 0.00 0.00 0.00 0.00 0.00 0.00 0.00 0.00 0.00 0.00 0.00 0.00 0.00 0.00 0.00 0.00 0.00 0.00
0.00 0.00 0.00 0.00 0.00 0.00 0.00 0.00 0.00 0.00 0.00 0.00 0.00 0.00 0.00 0.00 0.00 0.00 0.00 0.00 0.00 0.00 0.00 0.00 0.00 0.00 0.00 0.00 0.00 0.00 0.00 0.00 0.00 0.00 0.00 0.00 0.00 0.00 0.00 0.00 0.00 0.00 0.00 0.00
0.00 0.00 0.00 0.00 0.00 0.00 0.00 0.00 0.00 0.00 0.00 0.00 0.00 0.00 0.00 0.00 0.00 0.00 0.00 0.00 0.00 0.00 0.00 0.00 0.00 0.00 0.00 0.00 0.00 0.00 0.00 0.00 0.00 0.00 0.00 0.00 0.00 0.00 0.00 0.00 0.00 0.00 0.00 0.00
0.00 0.00 0.00 0.00 0.00 0.00 0.00 0.00 0.00 0.00 0.00 0.00 0.00 0.00 0.00 0.00 0.00 0.00 0.00 0.00 0.00 0.00 0.00 0.00 0.00 0.00 0.00 0.00 0.00 0.00 0.00 0.00 0.00 0.00 0.00 0.00 0.00 0.00 0.00 0.00 0.00 0.00 0.00 0.00
0.00 0.00 0.00 0.00 0.00 0.00 0.00 0.00 0.00 0.00 0.00 0.00 0.00 0.00 0.00 0.00 0.00 0.00 0.00 0.00 0.00 0.00 0.00 0.00 0.00 0.00 0.00 0.00 0.00 0.00 0.00 0.00 0.00 0.00 0.00 0.00 0.00 0.00 0.00 0.00 0.00 0.00 0.00 0.00
0.00 0.00 0.00 0.00 0.00 0.00 0.00 0.00 0.00 0.00 0.00 0.00 0.00 0.00 0.00 0.00 0.00 0.00 0.00 0.00 0.00 0.00 0.00 0.00 0.00 0.00 0.00 0.00 0.00 0.00 0.00 0.00 0.00 0.00 0.00 0.00 0.00 0.00 0.00 0.00 0.00 0.00 0.00 0.00
0.00 0.00 0.00 0.00 0.00 0.00 0.00 0.00 0.00 0.00 0.00 0.00 0.00 0.00 0.00 0.00 0.00 0.00 0.00 0.00 0.00 0.00 0.00 0.00 0.00 0.00 0.00 0.00 0.00 0.00 0.00 0.00 0.00 0.00 0.00 0.00 0.00 0.00 0.00 0.00 0.00 0.00 0.00 0.00
0.00 0.00 0.00 0.00 0.00 0.00 0.00 0.00 0.00 0.00 0.00 0.00 0.00 0.00 0.00 0.00 0.00 0.00 0.00 0.00 0.00 0.00 0.00 0.00 0.00 0.00 0.00 0.00 0.00 0.00 0.00 0.00 0.00 0.00 0.00 0.00 0.00 0.00 0.00 0.00 0.00 0.00 0.00 0.00
0.00 0.00 0.00 0.00 0.00 0.00 0.00 0.00 0.00 0.00 0.00 0.00 0.00 0.00 0.00 0.00 0.00 0.00 0.00 0.00 0.00 0.00 0.00 0.00 0.00 0.00 0.00 0.00 0.00 0.00 0.00 0.00 0.00 0.00 0.00 0.00 0.00 0.00 0.00 0.00 0.00 0.00 0.00 0.00
0.00 0.00 0.00 0.00 0.00 0.00 0.00 0.00 0.00 0.00 0.00 0.00 0.00 0.00 0.00 0.00 0.00 0.00 0.00 0.00 0.00 0.00 0.00 0.00 0.00 0.00 0.00 0.00 0.00 0.00 0.00 0.00 0.00 0.00 0.00 0.00 0.00 0.00 0.00 0.00 0.00 0.00 0.00 0.00
0.00 0.00 0.00 0.00 0.00 0.00 0.00 0.00 0.00 0.00 0.00 0.00 0.00 0.00 0.00 0.00 0.00 0.00 0.00 0.00 0.00 0.00 0.00 0.00 0.00 0.00 0.00 0.00 0.00 0.00 0.00 0.00 0.00 0.00 0.00 0.00 0.00 0.00 0.00 0.00 0.00 0.00 0.00 0.00
0.00 0.00 0.00 0.00 0.00 0.00 0.00 0.00 0.00 0.00 0.00 0.00 0.00 0.00 0.00 0.00 0.00 0.00 0.00 0.00 0.00 0.00 0.00 0.00 0.00 0.00 0.00 0.00 0.00 0.00 0.00 0.00 0.00 0.00 0.00 0.00 0.00 0.00 0.00 0.00 0.00 0.00 0.00 0.00
0.00 0.00 0.00 0.00 0.00 0.00 0.00 0.00 0.00 0.00 0.00 0.00 0.00 0.00 0.00 0.00 0.00 0.00 0.00 0.00 0.00 0.00 0.00 0.00 0.00 0.00 0.00 0.00 0.00 0.00 0.00 0.00 0.00 0.00 0.00 0.00 0.00 0.00 0.00 0.00 0.00 0.00 0.00 0.00
0.00 0.00 0.00 0.00 0.00 0.00 0.00 0.00 0.00 0.00 0.00 0.00 0.00 0.00 0.00 0.00 0.00 0.00 0.00 0.00 0.00 0.00 0.00 0.00 0.00 0.00 0.00 0.00 0.00 0.00 0.00 0.00 0.00 0.00 0.00 0.00 0.00 0.00 0.00 0.00 0.00 0.00 0.00 0.00
0.00 0.00 0.00 0.00 0.00 0.00 0.00 0.00 0.00 0.00 0.00 0.00 0.00 0.00 0.00 0.00 0.00 0.00 0.00 0.00 0.00 0.00 0.00 0.00 0.00 0.00 0.00 0.00 0.00 0.00 0.00 0.00 0.00 0.00 0.00 0.00 0.00 0.00 0.00 0.00 0.00 0.00 0.01 0.08
0.00 0.00 0.00 0.00 0.00 0.00 0.00 0.00 0.00 0.00 0.00 0.00 0.00 0.00 0.00 0.00 0.00 0.00 0.00 0.00 0.00 0.00 0.00 0.00 0.00 0.00 0.00 0.00 0.00 0.00 0.00 0.00 0.00 0.00 0.00 0.00 0.00 0.00 0.00 0.03 0.04 0.17 0.29 0.18
0.00 0.00 0.00 0.00 0.00 0.00 0.00 0.00 0.00 0.00 0.00 0.00 0.00 0.00 0.00 0.00 0.00 0.00 0.00 0.00 0.00 0.00 0.00 0.00 0.00 0.00 0.00 0.00 0.00 0.00 0.00 0.00 0.00 0.00 0.00 0.00 0.00 0.01 0.10 0.18 0.15 0.13 0.06 0.02
0.01 0.01 0.00 0.00 0.00 0.00 0.00 0.01 0.02 0.00 0.00 0.00 0.00 0.00 0.00 0.00 0.00 0.00 0.00 0.00 0.00 0.00 0.00 0.00 0.00 0.00 0.00 0.00 0.00 0.00 0.00 0.00 0.00 0.00 0.00 0.00 0.00 0.03 0.11 0.15 0.08 0.01 0.00 0.00
0.01 0.02 0.01 0.00 0.00 0.01 0.01 0.00 0.01 0.02 0.00 0.00 0.00 0.00 0.00 0.00 0.00 0.00 0.00 0.00 0.00 0.00 0.00 0.00 0.00 0.00 0.00 0.00 0.00 0.00 0.00 0.00 0.00 0.00 0.00 0.00 0.00 0.02 0.06 0.07 0.01 0.00 0.00 0.00
0.01 0.00 0.00 0.00 0.00 0.00 0.02 0.01 0.00 0.05 0.08 0.00 0.00 0.00 0.00 0.00 0.00 0.00 0.00 0.00 0.00 0.00 0.00 0.00 0.00 0.00 0.00 0.00 0.00 0.00 0.00 0.00 0.00 0.00 0.00 0.00 0.00 0.01 0.01 0.02 0.00 0.00 0.00 0.00
0.02 0.02 0.01 0.00 0.02 0.03 0.04 0.15 0.02 0.01 0.01 0.00 0.00 0.00 0.00 0.00 0.01 0.04 0.01 0.05 0.07 0.06 0.01 0.00 0.00 0.00 0.00 0.00 0.00 0.00 0.00 0.00 0.01 0.10 0.12 0.07 0.02 0.00 0.00 0.00 0.00 0.00 0.00 0.00
0.01 0.01 0.02 0.07 0.08 0.05 0.03 0.05 0.03 0.01 0.01 0.00 0.00 0.00 0.00 0.00 0.02 0.09 0.19 0.32 0.35 0.42 0.27 0.05 0.00 0.02 0.03 0.08 0.09 0.11 0.11 0.06 0.06 0.07 0.07 0.05 0.01 0.00 0.00 0.00 0.00 0.00 0.00 0.00
MSLP
1000.18 1000.57 1000.07 1000.44 1000.66 1000.66 1000.22 999.53 998.68 997.49 997.31 998.04 999.46 1000.54 1000.94 1001.11 1001.47 1002.42 1002.71 1003.39 1004.17 1005.12 1005.81 1006.62 1007.14 1007.86 1008.77 1009.47 1010.07 1010.64 1011.36 1012.34 1013.11 1013.69 1014.22 1014.79 1015.22 1015.29 1015.19 1014.99 1015.31 1015.54 1015.80 1016.22
1000.12 999.67 1000.02 1000.00 1000.01 1000.12 999.68 999.10 998.22 997.45 996.80 997.50 999.30 1000.25 1000.19 1000.28 1000.20 1001.10 1002.07 1002.46 1003.14 1003.98 1004.80 1005.64 1006.50 1007.19 1007.98 1008.89 1009.58 1010.28 1010.76 1011.63 1012.52 1013.14 1013.70 1014.20 1014.60 1014.75 1014.70 1014.65 1014.88 1015.18 1015.56 1015.76
999.07 998.86 999.49 999.38 999.15 999.08 998.86 998.44 997.84 997.79 997.16 997.56 999.26 1000.56 1000.56 1000.48 1000.33 1001.11 1001.71 1001.48 1002.12 1002.67 1003.58 1004.48 1005.42 1006.25 1007.15 1008.10 1008.90 1009.62 1010.21 1010.99 1011.87 1012.61 1013.29 1013.87 1014.28 1014.50 1014.60 1014.67 1014.57 1014.59 1014.98 1015.47
998.25 998.18 998.18 998.19 998.02 998.09 997.94 997.53 997.53 997.38 997.54 998.08 998.68 1000.12 1000.97 1000.84 1000.51 1001.06 1001.39 1000.89 1000.97 1001.55 1002.30 1003.25 1004.21 1005.14 1006.00 1007.05 1007.99 1008.92 1009.67 1010.40 1011.20 1011.94 1012.72 1013.33 1013.73 1014.17 1014.07 1014.05 1014.00 1014.31 1014.57 1015.04
996.67 996.94 996.94 996.84 996.91 997.03 996.64 997.19 997.17 997.14 997.45 998.08 998.36 998.93 999.12 1000.04 1000.35 1000.10 999.92 999.69 999.78 1000.40 1001.14 1002.02 1002.84 1003.58 1004.50 1005.65 1006.76 1007.84 1008.78 1009.71 1010.50 1011.34 1012.02 1012.83 1013.36 1013.54 1013.50 1013.50 1013.70 1014.09 1014.49 1014.67
996.16 996.11 996.07 995.82 996.01 996.04 996.44 996.84 996.96 997.22 997.54 997.71 997.91 998.07 997.96 998.63 998.77 998.89 998.11 998.22 998.49 999.13 999.87 1000.76 1001.37 1002.56 1003.61 1004.66 1005.77 1006.90 1008.02 1009.03 1009.82 1010.64 1011.45 1012.15 1012.70 1012.88 1013.01 1013.16 1013.53 1013.89 1014.25 1014.55
995.95 995.41 995.29 994.97 995.07 995.14 995.58 996.56 997.18 997.57 997.44 997.04 997.06 997.09 996.17 995.68 995.83 995.88 996.02 996.91 997.29 997.98 998.78 999.82 1000.98 1001.84 1002.64 1003.61 1004.73 1006.02 1007.12 1008.18 1009.05 1009.95 1010.72 1011.38 1011.87 1012.07 1012.13 1012.47 1013.07 1013.52 1014.03 1014.45
995.56 995.13 994.18 993.55 993.67 994.29 994.99 995.87 996.40 996.96 997.27 997.21 996.55 995.39 994.46 993.83 993.42 993.79 994.59 995.42 996.09 996.87 997.68 998.56 999.49 1000.37 1001.52 1002.67 1003.90 1005.07 1006.30 1007.37 1008.28 1009.17 1009.93 1010.60 1011.04 1011.09 1011.37 1011.97 1012.51 1012.90 1013.23 1013.63
994.37 993.94 993.05 992.95 992.89 993.57 993.94 994.12 995.58 997.07 997.36 997.21 996.02 994.86 993.55 993.09 992.86 993.03 993.49 994.31 994.70 995.69 996.47 997.74 998.28 999.44 1000.57 1001.67 1002.79 1003.87 1005.43 1006.58 1007.47 1008.20 1009.05 1009.73 1010.18 1010.31 1010.78 1011.39 1011.85 1012.32 1012.56 1013.02
993.27 993.26 992.59 991.98 992.26 992.42 992.67 994.01 994.98 995.59 996.72 996.52 995.90 994.64 993.23 992.40 992.16 992.67 993.05 993.47 993.83 994.25 995.49 996.49 997.36 998.56 999.44 1000.35 1001.56 1002.95 1004.15 1005.29 1006.55 1007.49 1008.09 1008.65 1009.05 1009.48 1010.28 1010.87 1011.16 1011.52 1011.92 1012.26
992.56 992.89 992.26 991.87 991.13 991.65 992.38 992.90 994.13 995.00 995.73 996.02 995.78 993.55 992.38 991.92 991.88 991.80 992.15 992.35 992.84 992.87 993.16 994.50 995.69 996.93 998.08 999.64 1000.81 1001.85 1003.16 1004.48 1005.60 1006.41 1007.00 1007.61 1008.08 1008.80 1009.68 1010.21 1010.48 1010.79 1011.18 1011.71
991.15 992.06 992.03 990.98 990.71 990.52 990.61 991.65 993.23 994.39 995.38 995.42 995.17 992.81 991.34 991.52 991.13 991.10 990.57 991.24 991.13 991.43 992.34 993.43 994.64 996.08 997.61 998.58 999.91 1000.93 1002.11 1003.16 1004.18 1005.16 1006.06 1006.61 1007.27 1008.08 1008.86 1009.24 1009.71 1010.07 1010.40 1010.88
990.23 990.34 991.63 990.92 990.36 989.90 990.17 990.61 991.61 992.84 994.36 994.09 994.57 991.57 991.73 990.85 990.83 990.60 991.28 991.37 991.78 991.40 991.92 992.74 993.98 995.39 996.63 997.63 998.78 999.96 1001.11 1002.18 1003.15 1004.15 1005.01 1005.86 1006.45 1007.12 1007.76 1008.31 1008.87 1009.20 1009.64 1010.29
990.81 989.37 989.51 989.42 989.52 989.94 989.80 989.83 990.38 991.60 992.39 992.76 992.01 992.64 991.94 990.89 990.84 990.38 990.55 990.71 990.99 991.35 991.60 992.31 993.44 994.68 995.70 996.61 997.74 998.95 1000.07 1001.07 1002.13 1003.15 1004.06 1004.86 1005.37 1005.78 1006.51 1007.21 1007.87 1008.43 1008.96 1009.58
991.62 989.59 989.08 989.01 989.10 989.08 988.77 988.96 989.05 989.75 990.58 991.76 991.78 992.04 991.64 990.56 991.03 990.63 990.23 990.37 990.71 991.26 991.62 992.16 992.85 993.91 994.66 995.56 996.72 997.94 998.90 999.82 1000.90 1002.03 1002.96 1003.56 1004.17 1004.82 1005.71 1006.47 1007.09 1007.72 1008.40 1008.96
993.96 991.77 989.10 988.80 988.71 988.54 988.08 987.93 988.15 988.32 989.13 989.82 990.49 990.10 990.26 990.17 990.52 990.79 990.31 989.94 990.37 991.02 991.51 991.90 992.46 993.00 994.08 994.94 995.70 996.62 997.86 998.68 999.63 1000.73 1001.46 1002.53 1003.39 1004.19 1004.89 1005.71 1006.32 1007.02 1007.67 1008.37
995.79 993.25 990.94 989.19 988.73 988.77 988.16 986.34 987.22 987.45 987.65 988.53 988.92 989.16 990.23 990.24 990.07 990.34 989.83 989.77 989.59 990.11 991.43 991.52 992.00 992.68 993.02 993.84 994.57 995.62 996.34 997.42 998.53 999.37 1000.38 1001.31 1002.31 1003.11 1003.92 1004.91 1005.76 1006.44 1007.13 1007.91
995.18 994.16 992.80 989.88 989.35 988.76 986.48 986.30 986.37 986.91 987.13 987.47 987.99 988.59 989.07 989.28 989.21 989.70 989.44 989.56 989.70 990.53 990.68 991.62 991.21 991.81 992.50 993.16 993.90 994.36 995.45 996.51 997.42 998.39 999.33 1000.12 1001.12 1002.09 1003.15 1004.12 1004.99 1005.83 1006.50 1007.21
994.28 993.52 992.57 990.82 989.33 988.35 987.26 986.40 986.37 986.68 987.24 987.64 988.27 988.63 988.65 988.83 988.72 988.70 988.84 989.01 989.19 989.95 990.47 990.69 991.23 990.73 991.13 991.90 992.69 993.87 995.06 995.67 996.58 997.47 998.16 998.93 999.91 1001.02 1002.23 1003.26 1004.47 1005.33 1006.30 1007.34
993.23 992.62 992.46 991.09 989.91 988.51 987.40 987.07 986.64 986.71 988.39 988.48 988.63 989.05 989.30 989.29 989.66 989.56 989.21 989.09 989.04 988.90 989.17 989.56 989.80 990.26 990.86 991.05 991.56 992.75 993.80 994.89 995.62 996.30 996.97 998.08 999.25 1000.38 1001.78 1002.84 1004.11 1004.98 1005.86 1006.43
993.71 992.73 992.36 991.14 990.21 989.27 988.18 987.86 987.49 988.93 990.27 989.67 989.17 989.53 989.86 990.20 990.37 989.79 989.07 989.07 989.00 988.80 988.64 988.67 988.72 989.19 989.87 990.56 991.20 992.04 992.60 993.58 993.89 995.46 997.01 998.13 999.25 1000.39 1001.38 1002.58 1003.86 1005.08 1005.80 1006.37
997.29 996.85 993.95 991.94 990.73 990.66 989.55 989.10 989.25 990.65 990.50 990.48 990.61 990.57 990.67 990.60 990.42 990.04 989.22 988.89 988.83 988.72 988.45 988.43 988.80 988.74 988.97 990.01 990.66 991.54 992.10 992.92 994.48 995.60 996.90 998.16 999.30 1000.39 1001.50 1002.71 1003.73 1004.47 1005.48 1006.08
998.86 997.74 996.13 994.65 992.51 991.51 990.48 990.85 991.02 991.35 991.95 992.29 992.22 992.07 991.66 991.88 992.15 991.57 990.65 989.83 989.48 989.08 988.79 988.68 988.85 989.45 989.41 989.29 990.25 991.62 992.42 993.22 994.72 995.97 997.23 998.46 999.64 1000.78 1001.95 1003.21 1004.18 1004.95 1005.50 1007.08
998.23 997.39 996.48 995.46 992.59 992.69 993.13 991.99 991.99 991.47 992.47 993.75 993.26 993.12 992.99 993.23 993.42 993.24 992.60 991.97 991.20 990.67 990.16 989.46 989.32 990.26 990.89 990.70 990.96 991.61 992.54 993.40 994.81 996.35 997.68 998.90 999.93 1001.29 1002.47 1003.42 1004.30 1005.17 1005.90 1006.89
999.77 998.74 998.10 996.67 995.13 994.54 995.00 994.24 993.13 993.02 993.41 994.48 993.88 993.61 994.20 994.38 994.92 994.54 994.14 993.72 993.13 992.70 991.27 990.53 990.19 990.60 991.64 992.08 992.38 992.59 993.53 994.07 995.70 997.05 998.24 999.04 1000.11 1001.41 1003.03 1004.30 1005.18 1005.53 1006.37 1006.69
1000.17 999.54 999.15 998.21 998.13 996.62 995.85 994.65 993.70 994.43 994.66 994.62 994.51 995.04 995.60 995.46 995.88 995.72 995.22 994.91 994.80 994.41 995.94 990.20 990.53 991.02 991.97 993.00 993.56 994.14 994.84 995.33 996.63 997.75 998.92 999.70 1000.85 1002.18 1003.28 1004.50 1005.92 1006.47 1006.88 1006.81
Thickness
5816 5793 5791 5802 5811 5817 5820 5818 5820 5848 5870 5855 5833 5827 5838 5848 5845 5836 5843 5837 5835 5831 5836 5836 5837 5837 5832 5830 5827 5825 5821 5816 5811 5806 5801 5797 5794 5795 5798 5801 5799 5798 5796 5793
5799 5789 5811 5822 5820 5815 5818 5815 5817 5846 5873 5858 5833 5828 5849 5858 5859 5855 5848 5844 5842 5841 5840 5839 5839 5840 5836 5832 5831 5827 5826 5821 5815 5811 5807 5803 5801 5801 5802 5803 5803 5802 5799 5795
5795 5810 5821 5816 5813 5810 5813 5812 5819 5823 5855 5864 5834 5808 5825 5845 5860 5853 5850 5856 5854 5852 5848 5846 5844 5843 5841 5836 5832 5830 5828 5824 5820 5815 5810 5805 5803 5802 5801 5801 5804 5805 5801 5796
5806 5825 5816 5810 5808 5817 5797 5838 5839 5836 5829 5803 5843 5787 5803 5828 5838 5839 5837 5852 5858 5859 5863 5859 5854 5850 5849 5843 5841 5835 5831 5826 5822 5819 5812 5806 5801 5796 5803 5805 5809 5806 5802 5797
5811 5814 5812 5809 5812 5826 5821 5841 5840 5839 5828 5817 5824 5802 5815 5829 5817 5827 5846 5857 5867 5867 5867 5864 5864 5864 5862 5856 5848 5842 5836 5830 5825 5820 5815 5809 5802 5805 5808 5810 5808 5806 5802 5798
5820 5836 5825 5824 5833 5834 5844 5831 5832 5833 5823 5787 5811 5814 5806 5816 5822 5831 5860 5865 5874 5876 5877 5874 5876 5871 5865 5862 5855 5847 5838 5832 5827 5822 5816 5810 5805 5806 5808 5807 5804 5802 5799 5795
5807 5815 5830 5838 5817 5830 5828 5802 5774 5767 5772 5765 5819 5810 5814 5866 5870 5871 5872 5869 5878 5881 5881 5876 5870 5869 5867 5863 5858 5849 5841 5832 5830 5823 5818 5814 5810 5812 5811 5809 5805 5802 5796 5791
5772 5768 5819 5842 5826 5812 5808 5806 5775 5737 5758 5778 5818 5802 5826 5882 5895 5898 5888 5885 5884 5881 5884 5878 5880 5878 5873 5867 5860 5853 5843 5834 5831 5825 5819 5817 5815 5817 5815 5813 5808 5804 5799 5797
5779 5783 5836 5838 5843 5832 5811 5795 5824 5781 5790 5772 5806 5828 5862 5881 5887 5893 5887 5880 5883 5885 5881 5876 5884 5882 5878 5872 5865 5859 5847 5838 5833 5829 5821 5818 5818 5820 5816 5814 5810 5806 5803 5801
5799 5769 5821 5838 5842 5837 5824 5833 5786 5796 5750 5749 5790 5802 5817 5856 5874 5879 5881 5884 5888 5892 5887 5884 5883 5883 5884 5881 5873 5864 5856 5845 5836 5830 5825 5822 5822 5821 5818 5813 5809 5808 5805 5804
5808 5788 5797 5816 5812 5809 5811 5804 5802 5800 5792 5761 5755 5792 5856 5861 5875 5877 5885 5895 5895 5897 5903 5896 5892 5892 5892 5882 5875 5868 5859 5849 5840 5835 5831 5826 5824 5821 5817 5813 5812 5810 5810 5806
5810 5790 5768 5793 5827 5838 5835 5811 5804 5766 5761 5777 5781 5791 5874 5884 5890 5890 5898 5900 5909 5904 5903 5898 5896 5892 5887 5883 5876 5870 5863 5856 5850 5843 5836 5831 5826 5821 5818 5816 5815 5814 5811 5810
5813 5788 5753 5771 5799 5819 5809 5824 5814 5813 5788 5772 5753 5799 5865 5880 5883 5893 5879 5884 5888 5899 5901 5901 5897 5889 5886 5885 5879 5873 5866 5860 5856 5849 5841 5834 5828 5825 5822 5821 5819 5818 5815 5809
5792 5791 5778 5762 5781 5802 5791 5811 5820 5806 5782 5787 5791 5798 5827 5861 5865 5878 5884 5888 5897 5894 5896 5895 5891 5888 5888 5888 5882 5876 5869 5866 5860 5853 5846 5839 5835 5833 5830 5827 5823 5820 5817 5811
5764 5769 5787 5790 5800 5807 5809 5808 5815 5803 5806 5778 5802 5800 5822 5856 5857 5871 5886 5885 5890 5889 5888 5890 5892 5889 5893 5890 5884 5879 5874 5870 5866 5857 5851 5847 5844 5838 5831 5827 5825 5822 5817 5812
5721 5732 5771 5767 5791 5797 5797 5812 5817 5817 5816 5809 5811 5813 5841 5856 5865 5866 5875 5882 5883 5884 5883 5890 5891 5893 5889 5889 5887 5884 5876 5873 5869 5861 5858 5853 5847 5839 5834 5829 5824 5820 5815 5809
5685 5709 5732 5738 5772 5775 5763 5800 5807 5815 5827 5819 5797 5828 5838 5837 5851 5861 5867 5876 5880 5886 5880 5885 5887 5884 5890 5888 5889 5883 5883 5879 5871 5866 5861 5857 5851 5843 5837 5830 5823 5817 5812 5805
5684 5688 5702 5728 5746 5717 5785 5818 5822 5816 5826 5834 5829 5831 5834 5838 5852 5860 5871 5872 5862 5869 5874 5876 5890 5887 5886 5889 5885 5888 5883 5877 5872 5866 5863 5859 5853 5846 5838 5830 5822 5816 5811 5802
5698 5694 5695 5703 5717 5750 5776 5800 5808 5802 5802 5830 5818 5823 5835 5841 5850 5854 5868 5869 5866 5868 5873 5872 5880 5892 5891 5890 5890 5882 5874 5875 5870 5865 5865 5863 5857 5848 5839 5830 5819 5813 5803 5791
5704 5701 5688 5704 5702 5709 5766 5802 5814 5818 5769 5811 5814 5813 5817 5829 5802 5820 5853 5863 5864 5869 5875 5880 5885 5885 5881 5887 5891 5880 5874 5869 5865 5867 5868 5863 5856 5846 5834 5827 5816 5808 5797 5784
5661 5677 5676 5697 5707 5735 5767 5786 5804 5748 5750 5796 5809 5812 5813 5805 5812 5832 5848 5854 5861 5866 5870 5878 5881 5880 5881 5883 5882 5874 5876 5869 5876 5868 5858 5852 5846 5838 5831 5821 5807 5797 5790 5785
5596 5606 5663 5693 5705 5706 5755 5767 5760 5756 5776 5785 5791 5797 5805 5812 5818 5829 5837 5847 5854 5859 5862 5867 5870 5876 5881 5877 5877 5869 5868 5872 5861 5856 5849 5841 5836 5829 5821 5809 5800 5794 5786 5779
5599 5626 5635 5658 5686 5720 5742 5743 5753 5753 5756 5761 5769 5781 5791 5791 5795 5806 5818 5827 5833 5841 5848 5855 5858 5859 5864 5872 5869 5858 5858 5858 5849 5843 5836 5830 5824 5817 5807 5796 5788 5780 5776 5760
5623 5634 5644 5658 5701 5706 5708 5735 5738 5753 5747 5748 5758 5768 5774 5775 5777 5780 5790 5799 5809 5817 5822 5835 5841 5833 5835 5848 5851 5852 5851 5849 5839 5829 5822 5816 5809 5798 5795 5787 5781 5772 5764 5754
5602 5617 5630 5650 5682 5686 5687 5697 5714 5729 5735 5735 5744 5758 5757 5760 5756 5762 5765 5771 5781 5790 5804 5813 5820 5822 5817 5823 5827 5833 5831 5834 5821 5813 5804 5799 5794 5789 5776 5763 5759 5759 5748 5749
5596 5612 5621 5635 5637 5654 5670 5687 5702 5711 5711 5724 5737 5739 5738 5741 5738 5742 5749 5754 5755 5756 5735 5785 5797 5803 5804 5803 5802 5804 5805 5807 5801 5793 5786 5781 5779 5771 5763 5755 5745 5736 5732 5731